Location: Del Amo
(33.8464°N, 118.2104°W)
Time: 18:32:13
(UTC+00:00)

S-56A Canister/Altair - Pass Details

Date: 21 September 2024
Orbit: 636 x 2487 km, 38.9° (Epoch: 14 October)

Event Time Altitude Azimuth Distance (km) Brightness Sun altitude
Rises 08:43:29 0° 272° (W) 4,620 - -53.1°
Reaches altitude 10° 08:48:11 10° 251° (WSW) 4,009 - -52.7°
Maximum altitude 08:53:33 15° 221° (SW) 3,979 - -52.2°
Drops below altitude 10° 08:59:46 10° 192° (SSW) 4,730 - -51.6°
Sets 09:06:25 0° 172° (S) 5,997 - -50.8°
